SAS335 ESSA-LDZD

Flight info

Callsign SAS335
Flight time 2h 18m
Altitude 38000
Route NOSLI N850 ABAMA DCT PENOR DCT BEZMI DCT DESEN DCT MIKOV DCT PETOV DCT KOTOR DCT KUDUL
Aircraft B736/M-SDE2E3FGHIRWXY/LB1

Departure

Time 2026-04-15 09:51
Airport Stockholm-Arlanda Airport (ESSA)

Arrival

Time 2026-04-15 12:09
Airport Zadar Airport (LDZD)
Time Latitude Longitude Altitude Speed Heading
2026-04-15 09:28 59.65126 17.92555 111 ft 0 kts 129°
2026-04-15 09:42 59.65127 17.92553 111 ft 2 kts 129°
2026-04-15 09:42 59.65138 17.92528 109 ft 2 kts 124°
2026-04-15 09:42 59.65138 17.92503 108 ft 0 kts 36°
2026-04-15 09:47 59.65150 17.92507 110 ft 6 kts
2026-04-15 09:47 59.65232 17.92530 111 ft 11 kts
2026-04-15 09:47 59.65274 17.92487 111 ft 8 kts 295°
2026-04-15 09:48 59.65297 17.92374 108 ft 10 kts 288°
2026-04-15 09:48 59.65357 17.92273 103 ft 14 kts 359°
2026-04-15 09:48 59.65447 17.92382 104 ft 17 kts 43°
2026-04-15 09:48 59.65521 17.92561 104 ft 17 kts 66°
2026-04-15 09:49 59.65550 17.92777 106 ft 16 kts 77°
2026-04-15 09:49 59.65577 17.92986 107 ft 15 kts 74°
2026-04-15 09:49 59.65603 17.93186 106 ft 15 kts 76°
2026-04-15 09:49 59.65655 17.93353 108 ft 14 kts 46°
2026-04-15 09:50 59.65722 17.93489 110 ft 13 kts 46°
2026-04-15 09:50 59.65786 17.93620 114 ft 13 kts 46°
2026-04-15 09:50 59.65848 17.93747 114 ft 13 kts 52°
2026-04-15 09:50 59.65894 17.94029 117 ft 45 kts 76°
2026-04-15 09:51 59.66029 17.95088 119 ft 112 kts 76°
2026-04-15 09:51 59.66256 17.96881 265 ft 147 kts 77°
2026-04-15 09:51 59.66503 17.98860 972 ft 144 kts 77°
2026-04-15 09:51 59.66753 18.00698 1837 ft 139 kts 79°
2026-04-15 09:52 59.66828 18.02690 2125 ft 158 kts 110°
2026-04-15 09:52 59.66108 18.04480 2455 ft 183 kts 150°
2026-04-15 09:52 59.64809 18.04812 2928 ft 203 kts 191°
2026-04-15 09:52 59.63591 18.03275 3495 ft 214 kts 214°
2026-04-15 09:53 59.62413 18.01418 4023 ft 217 kts 212°
2026-04-15 09:53 59.61222 17.99641 4648 ft 218 kts 211°
2026-04-15 09:53 59.59997 17.97827 5313 ft 222 kts 215°
2026-04-15 09:53 59.58898 17.95502 5722 ft 246 kts 226°
2026-04-15 09:54 59.57801 17.92695 6001 ft 269 kts 229°
2026-04-15 09:54 59.56650 17.89680 6624 ft 278 kts 229°
2026-04-15 09:54 59.55474 17.86634 7425 ft 280 kts 228°
2026-04-15 09:54 59.54277 17.83587 8272 ft 282 kts 228°
2026-04-15 09:55 59.53063 17.80540 9140 ft 284 kts 228°
2026-04-15 09:55 59.51835 17.77479 10051 ft 286 kts 227°
2026-04-15 09:55 59.50311 17.75049 10750 ft 287 kts 199°
2026-04-15 09:55 59.48311 17.74246 11007 ft 305 kts 181°
2026-04-15 09:56 59.46113 17.73932 11234 ft 328 kts 181°
2026-04-15 09:56 59.43786 17.73632 11829 ft 339 kts 181°
2026-04-15 09:56 59.39040 17.72973 13497 ft 344 kts 181°
2026-04-15 09:57 59.36636 17.72609 14302 ft 349 kts 182°
2026-04-15 09:57 59.34201 17.72227 15003 ft 353 kts 182°
2026-04-15 09:57 59.31738 17.71830 15723 ft 358 kts 182°
2026-04-15 09:57 59.29245 17.71423 16455 ft 362 kts 182°
2026-04-15 09:58 59.26720 17.71006 17182 ft 366 kts 182°
2026-04-15 09:58 59.24165 17.70582 17903 ft 371 kts 182°
2026-04-15 09:58 59.21588 17.70153 18614 ft 375 kts 182°
2026-04-15 09:58 59.18974 17.69718 19244 ft 379 kts 181°
2026-04-15 09:59 59.16332 17.69279 19921 ft 382 kts 181°
2026-04-15 09:59 59.13671 17.68837 20581 ft 386 kts 181°
2026-04-15 09:59 59.10982 17.68391 21224 ft 389 kts 181°
2026-04-15 09:59 59.08273 17.67942 21866 ft 393 kts 181°
2026-04-15 10:00 59.05533 17.67490 22467 ft 397 kts 180°
2026-04-15 10:00 59.02767 17.67033 23083 ft 400 kts 180°
2026-04-15 10:00 58.99978 17.66573 23692 ft 404 kts 180°
2026-04-15 10:00 58.97167 17.66111 24214 ft 407 kts 180°
2026-04-15 10:01 58.94330 17.65645 24712 ft 410 kts 180°
2026-04-15 10:01 58.91476 17.65177 25203 ft 413 kts 180°
2026-04-15 10:01 58.88599 17.64705 25684 ft 417 kts 181°
2026-04-15 10:01 58.85696 17.64230 26155 ft 420 kts 181°
2026-04-15 10:02 58.82771 17.63753 26610 ft 423 kts 181°
2026-04-15 10:02 58.79831 17.63274 27073 ft 426 kts 182°
2026-04-15 10:02 58.76883 17.62795 27772 ft 423 kts 181°
2026-04-15 10:02 58.73926 17.62314 28038 ft 431 kts 181°
2026-04-15 10:03 58.70915 17.61828 28290 ft 437 kts 181°
2026-04-15 10:03 58.67870 17.61336 28688 ft 440 kts 181°
2026-04-15 10:03 58.64811 17.60841 29110 ft 442 kts 181°
2026-04-15 10:03 58.61738 17.60344 29481 ft 445 kts 181°
2026-04-15 10:04 58.58637 17.59844 29828 ft 449 kts 181°
2026-04-15 10:04 58.55517 17.59343 30178 ft 451 kts 181°
2026-04-15 10:04 58.52385 17.58839 30575 ft 452 kts 182°
2026-04-15 10:04 58.49253 17.58336 30997 ft 451 kts 182°
2026-04-15 10:05 58.46127 17.57834 31371 ft 451 kts 182°
2026-04-15 10:05 58.42991 17.57333 31691 ft 453 kts 182°
2026-04-15 10:05 58.39845 17.56832 32012 ft 454 kts 183°
2026-04-15 10:05 58.36692 17.56331 32372 ft 455 kts 183°
2026-04-15 10:06 58.33535 17.55830 32733 ft 455 kts 183°
2026-04-15 10:06 58.30378 17.55330 33051 ft 456 kts 184°
2026-04-15 10:06 58.27214 17.54830 33376 ft 457 kts 184°
2026-04-15 10:06 58.24047 17.54330 33734 ft 457 kts 184°
2026-04-15 10:07 58.20923 17.53838 34097 ft 456 kts 184°
2026-04-15 10:07 58.17721 17.53334 34416 ft 456 kts 184°
2026-04-15 10:07 58.14600 17.52844 34699 ft 456 kts 185°
2026-04-15 10:07 58.11440 17.52349 34978 ft 456 kts 185°
2026-04-15 10:08 58.08276 17.51854 35221 ft 456 kts 185°
2026-04-15 10:08 58.05111 17.51360 35472 ft 457 kts 185°
2026-04-15 10:08 58.01942 17.50866 35714 ft 457 kts 185°
2026-04-15 10:08 57.98778 17.50374 35960 ft 457 kts 185°
2026-04-15 10:09 57.95604 17.49881 36187 ft 458 kts 185°
2026-04-15 10:09 57.92430 17.49389 36412 ft 458 kts 185°
2026-04-15 10:09 57.89251 17.48897 36639 ft 459 kts 185°
2026-04-15 10:09 57.86070 17.48406 36876 ft 459 kts 185°
2026-04-15 10:10 57.82887 17.47915 37111 ft 459 kts 185°
2026-04-15 10:10 57.79708 17.47426 37341 ft 459 kts 185°
2026-04-15 10:10 57.76520 17.46936 37555 ft 459 kts 185°
2026-04-15 10:10 57.73335 17.46447 37771 ft 459 kts 185°
2026-04-15 10:11 57.70151 17.45960 37975 ft 460 kts 186°
2026-04-15 10:11 57.66962 17.45472 38202 ft 460 kts 186°
2026-04-15 10:11 57.63766 17.44985 38226 ft 463 kts 186°
2026-04-15 10:12 57.57353 17.44009 38233 ft 461 kts 186°
2026-04-15 10:12 57.50988 17.43045 38235 ft 458 kts 186°
2026-04-15 10:13 57.44655 17.42088 38233 ft 455 kts 186°
2026-04-15 10:13 57.38359 17.41140 38234 ft 453 kts 186°
2026-04-15 10:14 57.32073 17.40196 38240 ft 453 kts 186°
2026-04-15 10:14 57.25778 17.39254 38245 ft 455 kts 186°
2026-04-15 10:15 57.19456 17.38312 38231 ft 457 kts 186°
2026-04-15 10:15 57.13112 17.37370 38233 ft 458 kts 186°
2026-04-15 10:16 57.06755 17.36429 38236 ft 459 kts 186°
2026-04-15 10:16 57.00382 17.35489 38235 ft 460 kts 186°
2026-04-15 10:17 56.94000 17.34551 38230 ft 461 kts 186°
2026-04-15 10:17 56.88689 17.33773 38239 ft 461 kts 186°
2026-04-15 10:18 56.82290 17.32838 38234 ft 461 kts 186°
2026-04-15 10:18 56.74854 17.31756 38234 ft 461 kts 186°
2026-04-15 10:19 56.69499 17.30979 38232 ft 461 kts 186°
2026-04-15 10:19 56.63110 17.30056 38233 ft 460 kts 186°
2026-04-15 10:20 56.56772 17.29143 38237 ft 459 kts 186°
2026-04-15 10:20 56.50409 17.28229 38240 ft 459 kts 186°
2026-04-15 10:21 56.44048 17.27318 38240 ft 458 kts 186°
2026-04-15 10:21 56.37701 17.26413 38237 ft 457 kts 186°
2026-04-15 10:22 56.31358 17.25511 38236 ft 457 kts 186°
2026-04-15 10:22 56.25020 17.24613 38243 ft 457 kts 186°
2026-04-15 10:23 56.18684 17.23718 38239 ft 457 kts 186°
2026-04-15 10:23 56.12352 17.22826 38245 ft 456 kts 186°
2026-04-15 10:24 56.06016 17.21937 38238 ft 457 kts 186°
2026-04-15 10:24 55.99679 17.21051 38243 ft 457 kts 186°
2026-04-15 10:25 55.93343 17.20168 38244 ft 457 kts 186°
2026-04-15 10:25 55.87004 17.19287 38249 ft 457 kts 186°
2026-04-15 10:26 55.80666 17.18409 38246 ft 457 kts 186°
2026-04-15 10:26 55.74326 17.17534 38253 ft 457 kts 187°
2026-04-15 10:27 55.68046 17.16669 38248 ft 457 kts 187°
2026-04-15 10:27 55.61694 17.16355 38244 ft 459 kts 176°
2026-04-15 10:28 55.55333 17.17657 38251 ft 460 kts 175°
2026-04-15 10:28 55.48988 17.19055 38256 ft 459 kts 175°
2026-04-15 10:29 55.42642 17.20384 38264 ft 459 kts 176°
2026-04-15 10:29 55.36296 17.21663 38261 ft 459 kts 176°
2026-04-15 10:30 55.29952 17.22926 38263 ft 459 kts 176°
2026-04-15 10:30 55.23599 17.24187 38269 ft 459 kts 176°
2026-04-15 10:31 55.17254 17.25445 38266 ft 459 kts 176°
2026-04-15 10:31 55.10912 17.26699 38267 ft 458 kts 176°
2026-04-15 10:32 55.04577 17.27947 38275 ft 458 kts 176°
2026-04-15 10:32 54.98250 17.29190 38273 ft 458 kts 176°
2026-04-15 10:33 54.91920 17.30430 38282 ft 457 kts 176°
2026-04-15 10:33 54.85604 17.31663 38281 ft 457 kts 176°
2026-04-15 10:34 54.79288 17.32892 38282 ft 456 kts 176°
2026-04-15 10:34 54.73023 17.34107 38279 ft 456 kts 176°
2026-04-15 10:35 54.66680 17.35334 38284 ft 455 kts 176°
2026-04-15 10:35 54.60426 17.36539 38283 ft 455 kts 176°
2026-04-15 10:36 54.54137 17.37748 38276 ft 455 kts 176°
2026-04-15 10:36 54.47844 17.38954 38278 ft 455 kts 176°
2026-04-15 10:37 54.41557 17.40155 38281 ft 454 kts 176°
2026-04-15 10:37 54.35270 17.40972 38293 ft 452 kts 181°
2026-04-15 10:38 54.28973 17.41125 38268 ft 452 kts 182°
2026-04-15 10:38 54.22683 17.41216 38287 ft 452 kts 181°
2026-04-15 10:39 54.16383 17.41355 38282 ft 452 kts 181°
2026-04-15 10:39 54.10086 17.41529 38271 ft 452 kts 181°
2026-04-15 10:40 54.03796 17.41712 38276 ft 452 kts 181°
2026-04-15 10:40 53.97500 17.41896 38275 ft 452 kts 181°
2026-04-15 10:41 53.91218 17.42077 38272 ft 452 kts 181°
2026-04-15 10:41 53.84928 17.42258 38278 ft 452 kts 181°
2026-04-15 10:42 53.78640 17.42437 38275 ft 452 kts 181°
2026-04-15 10:42 53.72360 17.42616 38275 ft 451 kts 181°
2026-04-15 10:43 53.66080 17.42794 38274 ft 451 kts 181°
2026-04-15 10:43 53.59796 17.42972 38282 ft 451 kts 181°
2026-04-15 10:44 53.53562 17.43148 38271 ft 451 kts 181°
2026-04-15 10:44 53.47289 17.43324 38276 ft 451 kts 181°
2026-04-15 10:45 53.41014 17.43500 38279 ft 451 kts 181°
2026-04-15 10:45 53.34733 17.43676 38277 ft 451 kts 181°
2026-04-15 10:46 53.28464 17.43851 38278 ft 451 kts 181°
2026-04-15 10:46 53.22199 17.44025 38275 ft 450 kts 181°
2026-04-15 10:47 53.15937 17.44199 38270 ft 450 kts 181°
2026-04-15 10:47 53.09685 17.44371 38271 ft 449 kts 181°
2026-04-15 10:48 53.03433 17.44544 38273 ft 449 kts 181°
2026-04-15 10:48 52.97188 17.44716 38277 ft 448 kts 181°
2026-04-15 10:49 52.90952 17.44887 38278 ft 448 kts 181°
2026-04-15 10:49 52.84723 17.45057 38279 ft 447 kts 181°
2026-04-15 10:50 52.78503 17.45226 38276 ft 447 kts 181°
2026-04-15 10:50 52.72321 17.45394 38275 ft 447 kts 181°
2026-04-15 10:51 52.66108 17.45562 38276 ft 447 kts 181°
2026-04-15 10:51 52.59894 17.45730 38283 ft 446 kts 181°
2026-04-15 10:52 52.53685 17.45898 38279 ft 446 kts 181°
2026-04-15 10:52 52.47482 17.46064 38281 ft 446 kts 180°
2026-04-15 10:53 52.41271 17.46231 38275 ft 446 kts 181°
2026-04-15 10:53 52.35072 17.46396 38277 ft 446 kts 180°
2026-04-15 10:54 52.28874 17.46561 38278 ft 446 kts 180°
2026-04-15 10:54 52.22669 17.46726 38274 ft 446 kts 180°
2026-04-15 10:55 52.16466 17.46891 38274 ft 445 kts 180°
2026-04-15 10:55 52.10271 17.47054 38278 ft 445 kts 180°
2026-04-15 10:56 52.04080 17.47218 38277 ft 445 kts 180°
2026-04-15 10:56 51.97892 17.47380 38273 ft 445 kts 180°
2026-04-15 10:57 51.91706 17.47542 38279 ft 444 kts 180°
2026-04-15 10:57 51.82432 17.47784 38276 ft 444 kts 180°
2026-04-15 10:58 51.76252 17.47945 38275 ft 444 kts 180°
2026-04-15 10:58 51.70117 17.48104 38274 ft 444 kts 180°
2026-04-15 10:59 51.63946 17.48264 38271 ft 443 kts 180°
2026-04-15 10:59 51.57784 17.48423 38277 ft 443 kts 180°
2026-04-15 11:00 51.51619 17.48582 38268 ft 443 kts 180°
2026-04-15 11:00 51.45461 17.48740 38271 ft 442 kts 180°
2026-04-15 11:01 51.39304 17.48897 38278 ft 442 kts 180°
2026-04-15 11:01 51.33159 17.49054 38274 ft 442 kts 180°
2026-04-15 11:02 51.27015 17.49211 38261 ft 441 kts 180°
2026-04-15 11:02 51.20866 17.49366 38266 ft 442 kts 180°
2026-04-15 11:03 51.14716 17.49522 38282 ft 443 kts 180°
2026-04-15 11:03 51.08552 17.49678 38271 ft 443 kts 180°
2026-04-15 11:04 51.02378 17.49834 38269 ft 444 kts 180°
2026-04-15 11:04 50.96199 17.49989 38274 ft 444 kts 180°
2026-04-15 11:05 50.90010 17.50144 38275 ft 445 kts 180°
2026-04-15 11:05 50.83824 17.50299 38274 ft 445 kts 180°
2026-04-15 11:06 50.77630 17.50453 38286 ft 446 kts 180°
2026-04-15 11:06 50.72465 17.50581 38276 ft 446 kts 180°
2026-04-15 11:07 50.66251 17.50736 38274 ft 446 kts 180°
2026-04-15 11:07 50.60045 17.50889 38275 ft 446 kts 180°
2026-04-15 11:08 50.53835 17.51043 38273 ft 446 kts 180°
2026-04-15 11:08 50.47629 17.51195 38279 ft 446 kts 180°
2026-04-15 11:09 50.41425 17.51347 38273 ft 446 kts 180°
2026-04-15 11:09 50.35209 17.51500 38277 ft 447 kts 180°
2026-04-15 11:10 50.28987 17.51526 38268 ft 447 kts 186°
2026-04-15 11:10 50.22958 17.49380 38272 ft 446 kts 202°
2026-04-15 11:11 50.17200 17.45746 38276 ft 447 kts 203°
2026-04-15 11:11 50.11449 17.42086 38270 ft 448 kts 203°
2026-04-15 11:12 50.05703 17.38493 38267 ft 448 kts 203°
2026-04-15 11:12 49.99895 17.34904 38275 ft 449 kts 202°
2026-04-15 11:13 49.94044 17.31308 38253 ft 449 kts 202°
2026-04-15 11:13 49.88273 17.27769 38263 ft 449 kts 202°
2026-04-15 11:14 49.82463 17.24215 38258 ft 449 kts 202°
2026-04-15 11:14 49.76652 17.20668 38257 ft 449 kts 202°
2026-04-15 11:15 49.70803 17.17107 38261 ft 449 kts 202°
2026-04-15 11:15 49.65018 17.13594 38257 ft 449 kts 202°
2026-04-15 11:16 49.59212 17.10078 38255 ft 448 kts 202°
2026-04-15 11:16 49.53413 17.06574 38262 ft 448 kts 202°
2026-04-15 11:17 49.47619 17.03083 38256 ft 447 kts 202°
2026-04-15 11:17 49.41790 16.99579 38263 ft 447 kts 202°
2026-04-15 11:18 49.36031 16.96127 38261 ft 447 kts 202°
2026-04-15 11:18 49.30244 16.92666 38266 ft 447 kts 202°
2026-04-15 11:19 49.24454 16.89212 38264 ft 447 kts 202°
2026-04-15 11:19 49.18662 16.85766 38268 ft 447 kts 202°
2026-04-15 11:20 49.12857 16.82320 38267 ft 447 kts 202°
2026-04-15 11:20 49.07056 16.78886 38270 ft 447 kts 202°
2026-04-15 11:21 49.01247 16.75455 38256 ft 448 kts 202°
2026-04-15 11:21 48.95428 16.72027 38257 ft 449 kts 202°
2026-04-15 11:22 48.89606 16.68605 38252 ft 449 kts 202°
2026-04-15 11:22 48.83773 16.65184 38249 ft 449 kts 202°
2026-04-15 11:23 48.77913 16.61911 38229 ft 450 kts 196°
2026-04-15 11:23 48.71769 16.60090 38237 ft 451 kts 191°
2026-04-15 11:24 48.65586 16.58505 38233 ft 451 kts 191°
2026-04-15 11:24 48.59405 16.56888 38243 ft 451 kts 191°
2026-04-15 11:25 48.53260 16.55240 38230 ft 451 kts 191°
2026-04-15 11:25 48.47076 16.53568 38232 ft 451 kts 191°
2026-04-15 11:26 48.40867 16.51891 38227 ft 451 kts 191°
2026-04-15 11:26 48.34726 16.50237 38230 ft 451 kts 191°
2026-04-15 11:27 48.28560 16.48582 38228 ft 450 kts 191°
2026-04-15 11:27 48.22394 16.46931 38249 ft 450 kts 191°
2026-04-15 11:28 48.16224 16.45283 38234 ft 450 kts 191°
2026-04-15 11:28 48.10065 16.43642 38240 ft 450 kts 191°
2026-04-15 11:29 48.03904 16.42005 38233 ft 449 kts 191°
2026-04-15 11:29 47.97745 16.40372 38228 ft 449 kts 191°
2026-04-15 11:30 47.91580 16.38741 38222 ft 450 kts 191°
2026-04-15 11:30 47.85380 16.37104 38204 ft 457 kts 191°
2026-04-15 11:31 47.79058 16.35439 38231 ft 465 kts 191°
2026-04-15 11:31 47.72720 16.33775 38226 ft 467 kts 191°
2026-04-15 11:32 47.66318 16.32099 38220 ft 467 kts 191°
2026-04-15 11:32 47.59915 16.30427 38220 ft 467 kts 191°
2026-04-15 11:33 47.53546 16.28767 38218 ft 466 kts 191°
2026-04-15 11:33 47.47166 16.27109 38220 ft 465 kts 191°
2026-04-15 11:34 47.40805 16.25459 38216 ft 463 kts 191°
2026-04-15 11:34 47.34467 16.23820 38216 ft 462 kts 191°
2026-04-15 11:35 47.28147 16.22189 38211 ft 461 kts 191°
2026-04-15 11:35 47.21843 16.20566 38216 ft 459 kts 191°
2026-04-15 11:36 47.15555 16.18951 38205 ft 458 kts 191°
2026-04-15 11:36 47.09283 16.17343 38214 ft 457 kts 191°
2026-04-15 11:37 47.03021 16.15743 38216 ft 457 kts 191°
2026-04-15 11:37 46.96760 16.14146 38218 ft 456 kts 191°
2026-04-15 11:38 46.90501 16.12554 38214 ft 457 kts 191°
2026-04-15 11:38 46.84237 16.10964 38213 ft 457 kts 191°
2026-04-15 11:39 46.77973 16.09378 38213 ft 457 kts 191°
2026-04-15 11:39 46.71710 16.07796 38210 ft 457 kts 191°
2026-04-15 11:40 46.65446 16.06217 38211 ft 457 kts 191°
2026-04-15 11:40 46.59185 16.04643 38211 ft 456 kts 191°
2026-04-15 11:41 46.52932 16.03075 38207 ft 456 kts 191°
2026-04-15 11:41 46.46721 16.01520 38211 ft 456 kts 191°
2026-04-15 11:42 46.40476 15.99960 38208 ft 455 kts 191°
2026-04-15 11:42 46.34237 15.98406 38208 ft 455 kts 191°
2026-04-15 11:43 46.28082 15.96380 38214 ft 452 kts 199°
2026-04-15 11:43 46.22106 15.93525 38207 ft 452 kts 200°
2026-04-15 11:44 46.16149 15.90638 38198 ft 452 kts 199°
2026-04-15 11:44 46.10181 15.87804 38204 ft 452 kts 199°
2026-04-15 11:45 46.04203 15.85000 38208 ft 452 kts 199°
2026-04-15 11:45 45.98220 15.82208 38209 ft 452 kts 199°
2026-04-15 11:46 45.92241 15.79422 38213 ft 452 kts 199°
2026-04-15 11:46 45.86257 15.76638 38211 ft 452 kts 199°
2026-04-15 11:47 45.80280 15.73864 38214 ft 452 kts 199°
2026-04-15 11:47 45.77283 15.72475 37979 ft 456 kts 199°
2026-04-15 11:47 45.74253 15.71072 37343 ft 457 kts 199°
2026-04-15 11:48 45.71238 15.69679 36666 ft 453 kts 199°
2026-04-15 11:48 45.68246 15.68298 35971 ft 451 kts 199°
2026-04-15 11:48 45.65265 15.66923 35186 ft 450 kts 200°
2026-04-15 11:48 45.62294 15.65555 34447 ft 447 kts 200°
2026-04-15 11:49 45.59348 15.64199 33610 ft 444 kts 200°
2026-04-15 11:49 45.56397 15.62840 32637 ft 445 kts 200°
2026-04-15 11:49 45.53451 15.61486 31716 ft 445 kts 200°
2026-04-15 11:49 45.50505 15.60134 30867 ft 444 kts 199°
2026-04-15 11:50 45.47626 15.58815 30276 ft 437 kts 199°
2026-04-15 11:50 45.44752 15.57497 29555 ft 431 kts 200°
2026-04-15 11:50 45.41965 15.55921 29163 ft 418 kts 206°
2026-04-15 11:50 45.39351 15.54196 28733 ft 412 kts 206°
2026-04-15 11:51 45.36806 15.52468 28143 ft 408 kts 207°
2026-04-15 11:51 45.34257 15.50729 27525 ft 405 kts 207°
2026-04-15 11:51 45.31721 15.49008 26907 ft 404 kts 206°
2026-04-15 11:51 45.29181 15.47299 26308 ft 405 kts 206°
2026-04-15 11:52 45.26605 15.45575 25720 ft 415 kts 206°
2026-04-15 11:52 45.23978 15.43827 25089 ft 416 kts 206°
2026-04-15 11:52 45.21361 15.42093 24472 ft 413 kts 206°
2026-04-15 11:52 45.18770 15.40380 23845 ft 410 kts 205°
2026-04-15 11:53 45.16193 15.38679 23140 ft 406 kts 205°
2026-04-15 11:53 45.13647 15.37000 22500 ft 402 kts 205°
2026-04-15 11:53 45.11129 15.35340 21894 ft 397 kts 205°
2026-04-15 11:53 45.08641 15.33701 21299 ft 393 kts 205°
2026-04-15 11:54 45.06175 15.32079 20724 ft 389 kts 205°
2026-04-15 11:54 45.04527 15.30995 20331 ft 386 kts 205°
2026-04-15 11:54 45.01322 15.28889 19588 ft 382 kts 205°
2026-04-15 11:54 44.99696 15.27822 19201 ft 380 kts 205°
2026-04-15 11:55 44.97308 15.26256 18646 ft 377 kts 205°
2026-04-15 11:55 44.94932 15.24699 18012 ft 376 kts 205°
2026-04-15 11:55 44.92600 15.23172 17421 ft 373 kts 204°
2026-04-15 11:55 44.90259 15.21641 16844 ft 370 kts 204°
2026-04-15 11:56 44.87934 15.20122 16293 ft 366 kts 204°
2026-04-15 11:56 44.85628 15.18616 15748 ft 364 kts 204°
2026-04-15 11:56 44.83343 15.17126 15210 ft 361 kts 204°
2026-04-15 11:56 44.81074 15.15647 14679 ft 358 kts 204°
2026-04-15 11:57 44.78817 15.14177 14130 ft 357 kts 204°
2026-04-15 11:57 44.74335 15.11261 12978 ft 352 kts 204°
2026-04-15 11:57 44.72119 15.09821 12424 ft 350 kts 203°
2026-04-15 11:58 44.69918 15.08393 11877 ft 347 kts 203°
2026-04-15 11:58 44.67735 15.06978 11329 ft 344 kts 204°
2026-04-15 11:58 44.65585 15.05519 10846 ft 341 kts 206°
2026-04-15 11:58 44.63540 15.03992 10721 ft 326 kts 207°
2026-04-15 11:59 44.61578 15.02501 10563 ft 315 kts 207°
2026-04-15 11:59 44.59683 15.01069 10421 ft 304 kts 206°
2026-04-15 11:59 44.57848 14.99695 10288 ft 294 kts 206°
2026-04-15 11:59 44.56072 14.98374 10166 ft 284 kts 206°
2026-04-15 12:00 44.54340 14.97090 9866 ft 281 kts 206°
2026-04-15 12:00 44.52620 14.95813 9543 ft 279 kts 206°
2026-04-15 12:00 44.50900 14.94536 9125 ft 280 kts 206°
2026-04-15 12:00 44.49181 14.93259 8789 ft 279 kts 206°
2026-04-15 12:01 44.47474 14.91992 8465 ft 277 kts 206°
2026-04-15 12:01 44.45734 14.90890 8118 ft 273 kts 191°
2026-04-15 12:01 44.43882 14.90875 7855 ft 265 kts 165°
2026-04-15 12:01 44.42212 14.91898 7531 ft 263 kts 144°
2026-04-15 12:02 44.40864 14.93604 7244 ft 260 kts 135°
2026-04-15 12:02 44.39592 14.95385 6926 ft 258 kts 135°
2026-04-15 12:02 44.38324 14.97155 6619 ft 257 kts 136°
2026-04-15 12:02 44.37056 14.98906 6300 ft 255 kts 136°
2026-04-15 12:03 44.35795 15.00642 5978 ft 254 kts 136°
2026-04-15 12:03 44.34541 15.02362 5705 ft 251 kts 135°
2026-04-15 12:03 44.33303 15.04058 5422 ft 248 kts 135°
2026-04-15 12:03 44.32076 15.05737 5145 ft 246 kts 135°
2026-04-15 12:04 44.30856 15.07407 4894 ft 246 kts 135°
2026-04-15 12:04 44.29633 15.09079 4610 ft 246 kts 135°
2026-04-15 12:04 44.28410 15.10749 4317 ft 245 kts 135°
2026-04-15 12:04 44.27198 15.12405 4048 ft 243 kts 135°
2026-04-15 12:05 44.25993 15.14049 3792 ft 242 kts 135°
2026-04-15 12:05 44.24790 15.15690 3526 ft 242 kts 135°
2026-04-15 12:05 44.23586 15.17331 3258 ft 241 kts 135°
2026-04-15 12:05 44.22385 15.18963 2980 ft 240 kts 135°
2026-04-15 12:06 44.21194 15.20586 2745 ft 239 kts 135°
2026-04-15 12:06 44.20018 15.22191 2524 ft 236 kts 135°
2026-04-15 12:06 44.18865 15.23754 2210 ft 225 kts 135°
2026-04-15 12:06 44.17796 15.25208 1942 ft 210 kts 135°
2026-04-15 12:07 44.16786 15.26577 1686 ft 195 kts 134°
2026-04-15 12:07 44.15854 15.27843 1427 ft 180 kts 135°
2026-04-15 12:07 44.14983 15.29027 1172 ft 165 kts 135°
2026-04-15 12:07 44.14214 15.30065 989 ft 147 kts 135°
2026-04-15 12:08 44.13531 15.30999 813 ft 130 kts 136°
2026-04-15 12:08 44.12898 15.31857 624 ft 126 kts 136°
2026-04-15 12:08 44.12281 15.32717 460 ft 126 kts 136°
2026-04-15 12:08 44.11651 15.33561 298 ft 125 kts 137°
2026-04-15 12:09 44.11084 15.34328 255 ft 99 kts 136°
2026-04-15 12:09 44.10726 15.34809 261 ft 55 kts 136°
2026-04-15 12:09 44.10469 15.35154 262 ft 48 kts 135°
2026-04-15 12:09 44.10246 15.35458 264 ft 42 kts 136°
2026-04-15 12:10 44.10088 15.35673 267 ft 14 kts 136°
2026-04-15 12:10 44.10009 15.35687 267 ft 13 kts 224°
2026-04-15 12:10 44.09945 15.35601 266 ft 13 kts 226°
2026-04-15 12:10 44.09876 15.35530 267 ft 12 kts 190°
2026-04-15 12:11 44.09791 15.35535 269 ft 12 kts 176°
2026-04-15 12:11 44.09729 15.35492 270 ft 11 kts 262°
2026-04-15 12:11 44.09726 15.35440 270 ft 0 kts 264°